Wind_Speed
30 31 31 30 29 31 34 28 24 26 25 46 43 41 38 37 35 33 30 26 22 18 15 12 10 9 7 9 15 4 4 2 4 8 9 7 8 10 12 8 7 11 12 4 5 4 7
29 32 33 32 31 29 29 37 28 25 23 23 45 44 40 37 36 33 31 27 23 19 15 12 9 7 6 14 6 4 3 6 9 7 8 8 6 8 9 7 8 6 7 8 9 10 11
26 31 34 35 33 32 30 34 38 31 25 24 25 45 42 39 36 33 31 28 24 19 15 12 9 7 13 17 3 4 5 8 5 8 7 1 6 8 5 7 5 7 10 12 15 14 11
27 27 30 34 34 33 33 33 36 34 24 27 24 34 44 40 37 33 31 27 23 18 14 11 8 8 9 11 24 27 10 8 6 4 3 1 6 9 8 8 4 6 10 9 14 20 8
29 29 30 30 34 34 34 32 33 35 32 26 27 18 39 41 38 34 30 26 21 15 13 9 6 9 14 5 19 19 19 16 11 8 5 3 6 7 6 8 8 11 9 15 16 15 11
29 31 30 30 31 36 36 34 35 34 37 34 26 24 16 41 38 35 29 23 17 14 12 8 15 8 17 15 15 20 23 18 13 9 6 5 5 7 8 10 10 11 17 17 14 13 8
31 31 32 33 33 33 38 37 35 35 36 37 29 24 20 22 40 37 31 24 9 7 23 13 12 13 8 24 2 17 19 21 16 14 13 15 8 14 19 17 17 17 16 14 14 12 11
33 33 34 34 36 35 38 40 37 37 37 40 32 28 22 23 38 42 40 20 29 4 11 27 24 23 29 8 10 14 21 16 18 20 18 13 19 19 17 18 19 18 16 15 16 15 15
35 36 35 36 36 36 37 42 39 38 38 35 33 24 27 22 31 44 45 43 23 21 6 19 32 24 15 17 14 19 22 23 20 20 20 22 10 22 19 16 14 13 14 14 17 15 9
37 37 38 38 39 38 37 42 40 38 38 36 35 26 26 21 19 35 37 36 32 31 6 14 16 16 28 17 14 28 30 22 16 23 22 21 22 20 20 20 16 16 16 18 17 11 13
37 40 43 43 42 40 37 41 41 39 39 37 36 34 29 29 10 20 29 41 26 9 8 13 28 13 19 26 8 25 31 21 21 16 22 17 21 22 17 19 16 15 7 10 9 11 14
39 42 43 43 42 41 38 38 42 42 38 38 35 39 33 30 30 17 28 36 11 5 10 9 21 25 28 31 20 18 26 21 18 20 19 22 15 16 20 15 13 9 8 7 10 10 12
41 45 43 45 46 44 41 38 43 42 40 38 35 34 36 29 16 31 38 15 9 6 2 9 31 28 32 28 29 14 27 26 19 18 20 19 22 14 9 16 13 12 8 4 4 7 9
43 43 46 46 43 43 44 41 44 43 41 37 35 31 36 35 29 36 14 11 15 10 22 10 20 21 30 29 31 29 26 24 27 24 14 18 17 25 16 21 14 17 14 6 8 10 14
42 43 45 39 37 39 45 42 45 43 40 37 32 29 30 34 36 43 17 14 13 16 27 9 17 21 24 28 17 26 29 28 26 28 20 19 21 18 22 20 21 18 21 18 14 15 7
40 43 43 37 35 34 43 43 47 44 40 36 27 18 24 26 25 28 16 13 19 20 23 23 19 20 23 30 25 26 28 29 29 30 20 11 13 21 26 24 24 23 13 13 9 9 12
41 41 41 36 32 37 43 45 48 45 41 37 20 5 9 37 23 13 14 13 14 26 13 31 20 19 22 23 30 29 24 17 32 30 26 14 8 13 18 24 20 15 18 14 11 12 7
39 38 36 25 24 37 40 46 49 47 42 36 7 6 15 29 8 5 8 9 15 22 22 9 14 22 20 25 25 26 33 30 24 24 34 28 10 14 21 17 23 22 24 22 9 15 16
37 35 33 21 23 34 40 48 49 47 47 32 7 7 13 18 10 6 2 12 20 23 21 18 19 14 16 20 13 26 23 25 15 28 26 24 10 10 8 17 20 24 18 20 17 10 18
40 30 30 19 17 30 45 48 48 49 48 29 5 6 4 7 2 5 7 14 15 26 22 19 21 15 17 14 18 17 22 16 8 18 24 25 12 20 16 19 15 22 22 22 20 15 13
36 28 27 14 24 35 42 45 48 49 48 26 5 4 6 6 5 4 10 17 22 16 20 23 18 16 13 9 10 6 16 19 15 15 15 21 19 18 17 12 24 22 24 25 25 21 19
32 29 29 17 23 30 38 44 46 47 45 18 4 4 6 4 8 17 8 16 24 25 21 28 16 25 22 16 15 16 19 14 16 16 11 7 16 13 16 19 14 24 25 26 23 23 23
34 39 33 23 33 39 42 44 46 47 41 7 10 10 1 8 9 6 12 12 23 27 22 26 28 22 23 24 21 22 18 4 3 17 18 17 6 14 11 17 4 10 21 19 20 20 19
37 40 37 23 40 43 44 45 46 48 48 15 19 5 4 5 9 4 6 19 19 25 26 24 26 22 19 13 12 8 8 9 5 0 4 10 7 3 4 6 7 7 9 12 15 16 16
37 37 34 11 35 42 43 46 47 47 48 23 14 8 4 8 10 13 9 12 16 15 24 22 26 26 13 8 5 3 4 3 1 5 7 2 7 3 4 5 7 11 8 11 14 20 17
37 34 27 5 30 40 41 44 46 42 46 31 15 19 3 8 11 18 9 10 10 9 14 26 18 10 13 3 3 6 5 5 6 7 10 9 4 4 3 4 8 5 14 14 7 16 7
36 35 30 7 26 33 34 39 43 42 41 33 13 16 6 3 9 9 5 3 3 4 5 16 22 8 14 5 5 5 3 7 8 12 10 9 7 10 6 5 6 9 6 9 14 3 2
34 35 33 4 23 38 36 35 39 41 39 34 21 16 6 3 2 4 4 6 2 5 5 3 3 5 8 11 13 6 5 6 5 11 12 10 8 7 5 5 11 7 10 14 4 6 5
31 36 35 27 18 20 30 30 31 31 32 33 12 19 15 2 1 2 5 6 7 4 4 5 1 4 4 3 2 4 3 6 11 5 13 8 10 8 11 8 4 1 7 6 6 3 4
Wind_Direction
281 277 275 273 275 277 281 285 286 277 263 243 241 239 238 236 234 232 232 228 230 235 243 255 273 299 321 241 256 169 154 213 272 271 272 278 269 252 253 250 246 239 267 233 283 242 256
288 281 273 269 267 267 268 274 280 280 278 269 240 240 236 235 233 231 231 228 226 229 236 246 259 282 248 260 260 177 215 237 257 248 243 239 277 353 301 301 265 1 312 292 272 244 239
295 286 281 268 261 261 262 269 266 271 273 274 260 237 236 232 231 229 229 226 226 223 229 237 250 267 262 240 211 186 241 237 240 252 232 1 330 283 338 249 277 278 275 268 243 234 228
298 294 292 272 259 253 254 262 272 267 270 271 271 241 234 232 229 225 224 223 220 221 220 229 242 263 254 257 244 254 235 223 206 204 339 359 302 283 265 307 256 245 236 261 257 201 157
297 293 295 288 263 252 249 251 256 255 263 268 264 277 235 229 226 223 217 215 212 209 214 213 240 226 257 251 226 231 218 223 201 214 235 291 276 252 205 233 258 220 251 231 237 173 159
294 289 293 295 280 257 246 243 245 246 250 256 260 265 287 230 222 217 207 197 192 190 201 219 245 238 250 238 222 224 221 219 224 208 236 223 225 227 218 223 218 233 219 240 248 176 193
293 288 287 287 289 271 250 240 238 240 241 249 249 252 267 251 219 209 183 149 167 212 206 201 186 216 298 209 230 200 202 200 211 202 211 197 212 210 219 216 239 264 289 292 298 309 292
290 290 286 285 281 277 261 239 232 234 235 238 243 242 254 254 220 202 179 194 193 153 202 227 253 214 243 193 212 221 193 187 196 209 214 217 226 226 228 235 235 243 259 261 276 282 273
287 288 285 284 281 281 272 237 228 230 231 228 229 234 237 251 235 193 190 201 198 228 252 198 217 227 221 217 229 207 187 201 199 208 209 222 216 219 237 229 238 245 245 258 272 289 268
288 285 285 282 278 279 280 235 223 224 228 228 220 223 228 218 206 200 198 197 217 217 256 225 204 231 214 203 243 232 189 193 211 216 213 228 234 245 209 229 209 236 237 245 257 272 262
288 288 286 282 275 271 273 235 220 221 225 225 221 220 223 215 163 200 194 192 221 170 227 210 194 170 192 198 150 201 185 210 213 210 204 213 212 227 228 218 215 235 295 304 278 262 277
288 289 285 281 274 265 260 242 222 218 219 224 219 216 220 223 207 225 191 186 164 203 205 225 166 186 186 197 220 173 190 211 223 228 228 231 202 219 228 233 223 245 242 262 262 263 250
293 295 285 283 270 259 250 244 221 213 216 218 219 212 213 205 209 202 174 156 188 217 168 221 169 175 193 191 200 201 191 193 203 206 221 223 223 197 219 218 221 212 184 219 226 221 252
300 298 296 286 268 252 238 235 217 209 213 217 220 215 213 219 215 196 198 170 206 184 192 247 164 184 195 190 200 213 190 196 214 204 196 205 215 215 194 210 196 205 195 193 227 236 259
306 305 301 287 269 253 227 224 209 202 209 211 212 210 209 216 205 189 190 203 187 194 200 222 159 182 196 201 187 203 209 203 204 201 213 198 223 180 206 205 217 192 216 228 272 284 281
311 311 306 292 266 240 214 213 200 195 200 200 196 202 217 213 214 186 204 206 198 204 187 208 191 199 192 199 195 194 207 202 207 210 213 224 220 225 195 197 217 234 201 213 235 235 244
319 319 317 299 255 219 208 205 190 190 192 193 183 197 209 215 225 197 203 201 205 206 184 196 192 199 208 195 203 194 207 205 198 197 212 225 233 210 198 201 193 208 233 224 211 228 230
326 326 324 303 224 207 202 196 184 185 182 178 183 201 190 184 215 232 197 176 213 206 218 215 198 225 208 208 207 212 214 204 193 203 200 205 227 229 220 221 208 210 216 220 210 210 231
332 326 323 304 228 210 202 186 178 176 175 169 185 190 170 154 214 228 204 203 208 205 197 192 196 232 255 217 208 216 221 210 209 197 213 181 218 222 236 228 218 222 214 213 225 230 234
336 329 328 308 217 194 180 172 173 174 175 172 172 172 227 179 179 192 184 188 194 209 204 195 198 220 223 241 215 213 221 221 224 229 210 180 178 211 210 214 179 211 222 209 212 220 231
337 327 325 298 185 172 172 173 173 176 180 176 178 188 193 193 179 201 202 171 199 185 209 192 201 206 220 218 223 245 223 216 201 232 185 186 202 201 221 199 193 199 210 209 213 217 222
332 334 327 249 208 187 178 176 174 178 182 193 138 162 194 268 187 206 212 199 198 197 183 200 196 199 217 227 213 202 238 206 201 204 189 182 209 220 235 230 204 212 214 219 218 220 228
334 338 330 247 210 193 183 179 179 181 177 192 179 200 76 221 207 228 214 229 199 200 206 199 207 199 213 226 225 240 191 169 287 192 188 182 148 201 224 220 98 240 246 205 213 230 240
343 345 341 232 200 189 183 181 181 185 189 190 198 172 196 236 200 187 219 206 227 217 212 201 199 214 201 142 62 22 85 117 146 128 108 177 112 352 141 89 210 228 224 250 248 254 236
351 350 359 184 190 184 182 183 187 189 192 202 179 193 194 232 236 230 285 237 219 243 233 209 208 207 144 127 97 10 339 71 206 179 156 166 119 172 142 166 324 286 244 225 228 244 249
359 356 355 278 197 186 187 184 189 190 194 199 184 191 195 229 230 247 233 281 219 220 227 228 207 163 161 126 107 156 205 146 171 170 216 212 204 138 136 172 194 229 226 260 297 249 242
4 359 357 329 195 189 193 191 191 192 193 197 197 196 214 214 231 232 216 293 162 183 291 205 207 192 188 167 168 182 193 159 160 171 173 188 202 196 176 215 249 236 264 215 222 256 104
14 12 9 8 187 191 193 196 195 193 194 192 202 188 129 219 248 274 209 224 328 263 189 191 141 183 192 194 195 173 167 181 171 186 175 166 162 187 173 171 255 186 183 198 158 89 92
16 19 16 20 200 193 189 193 192 195 196 192 203 210 211 183 32 305 233 201 192 179 313 180 168 154 171 152 220 116 185 157 167 194 187 189 198 158 191 206 270 304 190 150 106 113 125
Height
758 759 759 759 759 758 759 759 759 759 757 759 762 766 770 774 778 782 787 787 790 792 794 795 795 794 792 788 776 772 773 774 775 775 772 768 768 765 768 757 754 764 758 751 754 756 758
752 752 752 753 753 754 756 754 754 755 753 754 755 760 764 768 773 778 783 785 787 790 792 794 794 794 793 791 773 773 774 775 774 773 769 768 764 762 766 761 763 759 761 759 755 755 754
746 745 745 745 746 747 748 749 749 750 748 748 750 752 758 763 768 773 779 783 786 787 790 792 793 792 788 776 771 772 774 773 771 771 768 770 769 769 762 767 756 764 774 762 755 754 756
741 739 738 737 738 740 742 740 740 743 743 745 748 747 751 757 763 768 776 781 783 787 787 790 791 792 779 768 770 770 772 772 773 773 772 773 774 770 768 760 766 772 769 780 746 742 747
735 733 732 730 731 732 734 736 738 738 738 744 743 742 745 750 757 765 772 780 782 784 787 789 791 789 774 763 762 765 767 769 771 772 773 774 774 770 766 778 778 769 778 766 752 734 745
729 727 726 724 723 724 727 729 731 733 735 736 740 740 742 744 752 761 769 778 782 783 788 789 786 784 768 756 756 759 763 766 766 769 774 775 774 775 774 775 788 776 772 760 754 741 747
722 720 718 717 716 716 718 721 724 726 726 731 733 739 738 742 744 755 767 775 784 784 778 764 761 758 740 751 751 753 756 761 763 767 776 769 777 775 769 765 761 755 756 761 746 735 743
715 713 711 709 708 707 707 711 714 719 720 725 731 727 734 740 739 746 755 750 750 750 767 764 757 755 751 750 754 750 754 760 762 767 766 766 770 754 750 748 752 755 764 765 751 739 745
707 705 703 700 699 697 696 699 704 709 714 714 720 721 726 731 742 734 737 740 749 747 750 745 748 748 746 753 748 744 747 751 755 761 758 761 746 746 750 751 758 759 765 764 762 747 743
698 695 693 691 688 687 686 687 693 698 703 707 713 714 723 730 738 734 730 745 751 750 756 734 742 733 738 743 744 736 738 744 743 752 751 748 738 743 749 753 751 770 751 751 755 765 775
688 685 682 679 677 677 676 678 683 689 695 701 703 710 719 722 722 729 725 742 747 746 758 711 710 711 720 730 721 725 727 735 738 741 742 738 738 741 749 745 742 756 748 754 756 767 767
678 674 670 667 665 665 667 668 674 680 686 692 697 708 713 717 718 719 724 735 741 748 736 692 681 700 717 716 721 711 722 731 730 733 731 726 720 730 735 738 740 742 754 764 764 768 781
667 661 656 653 651 652 654 658 664 671 679 689 695 699 706 707 702 717 720 725 735 723 717 690 677 690 701 709 721 714 722 735 735 750 744 737 728 728 730 746 742 750 769 792 793 790 774
655 648 642 636 634 636 640 646 653 662 670 679 686 692 695 699 704 713 716 711 714 710 707 674 672 687 699 698 710 713 717 727 723 725 735 743 751 725 728 739 746 754 760 775 779 778 754
643 635 627 621 619 620 625 634 643 653 664 673 682 689 693 693 693 701 708 703 693 688 688 677 678 694 697 691 699 710 704 709 710 707 725 730 728 711 720 728 732 748 756 741 757 749 764
632 622 612 606 603 606 614 623 634 646 658 669 678 685 684 687 688 687 682 690 681 667 670 679 693 686 689 684 696 702 696 685 701 702 705 709 731 711 714 718 723 728 727 761 757 776 777
622 610 598 588 587 594 604 615 626 639 653 664 676 682 676 682 686 676 671 687 678 665 660 673 683 688 676 675 676 684 679 673 682 691 702 711 720 713 701 707 724 735 739 734 739 743 756
612 602 591 581 579 587 596 608 620 633 647 662 669 674 671 678 685 668 674 682 671 662 663 673 673 676 668 668 670 671 672 666 666 681 697 702 714 724 705 699 703 709 720 724 744 748 741
608 598 587 580 580 585 592 603 614 627 639 652 660 665 668 672 666 668 674 666 665 660 661 670 671 679 671 665 677 664 661 660 661 670 676 695 719 735 732 716 699 709 707 711 718 727 734
603 594 587 580 578 580 588 599 611 623 634 646 655 666 667 665 670 670 672 665 661 657 651 657 662 670 674 672 663 668 665 658 661 664 671 678 698 704 707 697 705 718 706 701 711 733 732
602 593 588 581 580 585 591 600 611 621 631 641 648 653 648 659 665 668 666 656 657 653 648 653 664 670 672 676 678 676 665 665 661 665 665 672 695 704 695 686 697 696 697 695 700 706 723
599 591 583 583 584 588 592 601 610 620 630 639 646 648 640 646 648 662 673 654 650 642 642 653 648 655 667 663 660 673 678 666 664 667 670 673 692 695 698 688 686 693 684 686 688 694 697
593 584 576 572 577 584 592 600 609 618 628 632 636 637 645 633 641 652 649 651 639 641 634 642 640 642 656 649 652 650 656 667 664 661 671 678 694 695 710 688 698 716 689 678 684 683 686
588 577 563 555 567 578 587 597 607 614 618 624 631 636 642 641 640 646 649 648 645 635 631 627 635 643 640 651 663 672 661 666 667 669 668 678 697 712 717 717 724 688 671 673 680 676 674
588 578 567 562 568 575 586 594 603 610 618 625 629 636 639 635 629 626 644 643 638 639 633 624 626 631 642 656 678 686 683 684 678 680 682 688 702 720 715 719 703 680 672 678 685 683 675
588 579 572 569 572 577 586 593 601 610 618 625 629 634 637 637 631 630 646 646 638 645 639 628 627 631 641 666 682 679 677 681 687 685 683 687 691 703 717 714 716 685 674 667 672 688 673
591 581 573 568 572 578 586 593 600 609 617 625 629 634 638 641 631 632 639 647 636 642 642 629 626 638 637 654 664 669 668 661 675 678 685 692 694 700 712 706 688 667 667 662 701 692 672
597 587 577 571 573 579 585 593 600 607 615 623 630 634 639 639 635 638 640 643 645 639 638 637 637 640 645 645 643 654 661 666 667 664 666 674 691 694 701 704 702 662 666 678 674 676 677
601 592 583 578 579 582 587 593 601 608 616 624 629 633 638 645 647 647 645 645 645 647 652 632 624 639 639 636 638 644 651 645 653 665 649 664 656 670 675 678 662 659 661 664 669 675 680